Location: Treviso
(45.6669°N, 12.2430°E)
Time: 08:03:25
(UTC+02:00)

ISS - Pass Details

Date: 15 March 2018
Orbit: 402 x 407 km, 51.6° (Epoch: 25 June)

Event Time Altitude Azimuth Distance (km) Brightness Sun altitude
Exits shadow 03:07:12 - 63° (ENE) 1,619 0.1 -33.2°
Enters shadow 04:06:05 -64° 277° (W) 11,892 3.6 -24.4°
Maximum altitude 04:41:00 44° 18° (NNE) 586 -2.8 -18.6°
